GFSSE_850_rhum_000.txt.gz
RH
59 31 34 56 79 79 76 81 83 80 81 72 70 56 62 92 95 90 87 88 86 97 96 89 98 89 83 84 87 82 84 86 86 77 56 54 56 30 56 96 42 93 92
33 28 33 66 79 78 81 84 81 81 82 75 57 56 83 96 90 87 85 83 86 97 69 88 96 94 90 89 83 84 85 89 86 60 56 47 35 75 69 74 50 97 95
45 32 40 78 86 78 80 88 83 80 77 68 61 86 80 84 86 76 77 76 94 92 71 49 86 83 83 82 83 90 92 89 79 54 34 49 67 75 73 59 50 66 85
50 43 47 78 76 79 87 84 70 66 70 67 59 96 87 86 87 90 88 85 82 80 62 51 40 32 54 80 93 88 89 99 85 69 36 65 79 84 79 68 44 49 78
51 75 76 71 78 90 89 81 78 72 71 64 53 83 81 83 82 85 89 93 93 86 68 47 46 34 32 52 67 76 75 95 90 67 65 80 58 79 90 73 57 41 70
56 54 44 64 81 82 82 80 83 71 79 67 46 80 82 78 82 82 85 90 94 85 72 56 49 52 58 55 53 42 40 46 37 40 54 88 75 43 68 77 58 36 35
62 53 37 32 56 62 71 80 76 72 82 87 49 77 81 80 80 82 79 87 92 65 63 53 35 37 54 65 65 60 36 22 18 16 15 41 63 58 32 30 24 32 27
61 50 30 27 40 51 57 70 80 85 88 91 59 57 75 78 77 86 96 81 87 54 40 36 32 30 32 40 39 44 32 30 27 18 16 19 34 40 30 18 18 18 20
60 52 35 34 46 39 46 48 80 85 86 88 60 43 36 64 76 81 80 67 38 32 32 33 36 37 37 38 39 40 40 37 36 34 26 20 18 20 15 11 12 14 16
63 60 62 41 48 42 48 47 58 66 79 70 46 27 25 38 50 43 47 38 33 32 35 36 38 39 40 41 42 43 48 47 45 41 39 38 37 34 30 23 13 10 12
52 64 73 75 72 61 62 78 79 47 42 34 30 32 22 42 57 50 43 32 36 40 42 43 44 44 45 46 50 58 54 53 50 49 50 53 56 51 47 46 43 32 15
48 49 64 74 77 79 86 80 65 53 59 53 52 60 56 69 66 62 45 48 49 50 51 55 55 58 62 62 62 66 67 68 69 67 68 70 66 68 62 53 50 52 50
40 52 58 66 71 72 82 76 91 86 74 84 88 81 77 66 69 64 66 70 63 65 69 70 78 82 83 87 91 90 93 93 93 90 88 84 83 85 84 85 85 76 65
40 52 57 59 64 79 84 74 90 86 84 87 86 85 81 89 89 90 88 87 92 93 95 96 99 97 96 97 94 92 93 95 95 95 94 94 92 91 90 91 92 94 92
42 49 56 54 57 68 87 84 84 92 88 85 86 93 93 93 96 94 95 95 95 94 93 92 88 89 91 89 91 86 82 89 88 90 91 91 90 88 86 86 88 91 90
47 53 57 59 68 67 77 90 87 92 96 92 94 94 94 90 91 97 98 93 88 92 93 93 88 86 81 80 73 74 82 79 75 74 78 77 75 84 85 80 73 72 77
46 52 54 64 67 79 82 90 94 94 95 98 98 98 98 100 92 98 97 92 85 87 81 80 57 53 54 57 60 60 69 72 72 64 70 60 70 76 77 74 72 78 75
44 38 36 38 53 77 87 92 97 97 95 92 94 94 94 91 91 92 78 54 55 50 49 44 46 44 44 42 48 56 56 53 48 50 52 59 65 74 77 81 85 65 71
50 35 35 36 51 81 93 94 94 92 94 97 96 93 77 68 60 42 34 32 38 42 44 44 40 42 37 34 53 44 42 51 42 52 60 66 65 62 62 53 54 51 60
49 44 48 58 75 88 93 90 88 92 92 87 73 60 42 31 30 33 38 39 38 35 35 32 30 28 26 42 28 39 26 40 37 47 54 45 40 31 33 35 41 52 57
66 63 61 64 76 82 92 91 81 69 68 61 43 33 30 34 37 38 35 31 28 27 28 24 22 19 20 20 33 20 27 30 40 40 26 22 22 29 45 51 39 35 37
67 69 75 80 84 86 78 71 67 65 46 36 31 31 36 39 37 33 32 31 30 28 25 19 18 14 16 17 32 26 44 31 34 30 49 26 45 42 34 18 29 31 32
52 46 56 61 58 63 64 62 52 41 35 31 34 38 41 37 37 36 33 30 30 25 19 13 13 11 13 14 17 33 41 46 42 43 31 38 22 30 25 24 30 37 30
46 42 43 49 53 55 52 48 39 31 31 35 41 40 38 40 41 41 37 33 29 21 16 13 12 11 11 16 22 19 20 34 42 45 37 38 35 35 34 40 32 50 46
48 42 40 40 43 47 45 35 31 32 36 40 39 42 44 45 48 44 42 37 33 24 16 10 10 10 11 19 36 32 26 35 24 38 50 42 43 41 42 42 48 31 30
45 37 34 34 34 34 34 34 34 36 39 40 43 46 46 48 47 46 43 36 28 19 12 9 9 10 13 22 27 28 31 39 38 44 49 45 48 46 46 42 40 32 45

GFSSE_850_rhum_003.txt.gz
RH
57 35 41 60 77 79 81 76 83 81 83 79 68 51 58 86 87 93 88 84 89 84 83 89 90 87 83 84 91 79 85 86 86 78 55 39 59 36 44 94 44 61 65
41 29 39 70 82 75 81 78 81 80 80 74 49 56 90 97 90 86 85 80 79 82 56 83 92 94 92 91 86 80 90 97 93 66 40 41 37 50 56 44 37 68 91
32 26 43 67 79 78 82 82 87 79 68 62 53 79 86 92 88 81 77 77 88 75 58 43 63 75 82 81 80 83 90 89 86 58 31 43 63 54 67 61 50 53 68
34 30 44 75 79 77 79 86 70 61 62 57 53 94 93 84 88 90 91 91 89 78 63 46 36 26 36 51 58 70 89 86 69 69 35 34 55 55 86 72 57 42 60
38 45 43 54 65 81 85 82 74 71 69 60 44 78 84 82 83 82 85 91 85 77 60 38 37 33 26 25 32 34 48 47 37 56 42 39 46 49 56 58 40 36 41
37 39 43 56 60 76 78 76 72 70 69 56 42 67 82 82 82 80 82 89 91 80 35 24 22 22 28 34 40 42 36 28 19 19 20 36 39 49 40 24 16 29 29
44 50 44 36 47 65 70 72 73 70 75 70 45 67 76 78 80 83 77 86 89 72 31 30 30 30 32 34 33 36 29 24 21 17 17 18 23 32 29 40 24 16 19
48 47 42 31 45 55 61 64 68 86 96 98 55 49 61 68 75 78 86 81 84 40 35 35 36 38 37 37 36 37 35 36 35 33 30 22 20 24 31 35 23 18 14
53 46 40 34 42 44 42 50 65 95 90 90 60 39 30 44 68 74 81 70 42 34 36 36 38 39 40 40 40 41 42 44 44 46 43 40 39 35 25 33 34 15 8
56 45 45 41 43 40 40 46 54 58 64 71 46 31 23 33 46 40 37 34 34 34 36 40 42 43 44 48 50 50 51 57 59 53 50 55 56 52 50 46 64 53 40
52 43 42 50 51 41 47 58 67 54 49 48 33 34 21 33 47 32 29 37 41 47 52 59 59 67 69 70 75 78 80 76 73 70 72 70 72 72 73 72 69 67 63
40 40 46 52 49 51 53 66 62 48 62 47 50 47 41 43 44 45 51 63 67 70 68 68 72 77 82 85 90 93 94 94 90 91 90 87 87 87 86 90 91 87 85
28 44 43 62 60 58 59 59 60 58 68 64 70 61 62 64 69 70 74 77 82 80 78 84 85 89 89 88 86 90 91 91 98 99 95 94 95 96 95 91 87 86 89
30 37 46 53 68 78 81 71 65 77 76 78 79 74 76 72 82 89 91 96 93 86 82 84 89 90 89 86 85 86 84 85 76 89 91 91 94 87 81 80 80 80 76
29 38 47 53 66 76 86 85 84 96 91 89 91 90 86 82 88 94 98 94 84 81 86 87 84 84 77 70 64 52 55 69 70 71 66 60 63 70 72 78 78 74 75
38 42 48 53 58 72 78 88 91 97 100 95 96 94 88 87 90 99 97 90 87 86 85 84 83 55 40 41 42 42 47 62 66 76 56 55 70 66 71 76 79 83 82
47 53 58 56 57 69 80 93 95 100 100 100 100 96 98 98 98 98 96 90 79 76 68 54 43 40 39 39 37 35 39 42 44 42 43 56 65 69 65 60 61 67 75
53 60 62 65 68 75 84 94 98 100 100 100 99 95 97 96 95 95 76 42 40 39 40 41 39 35 32 30 30 30 29 29 29 45 53 65 68 60 54 53 49 50 53
43 45 50 63 72 83 93 100 98 99 95 95 93 94 88 77 65 38 33 38 38 35 32 30 27 26 27 27 26 27 26 23 49 35 48 57 48 36 30 33 42 46 49
45 40 43 59 75 87 97 99 100 96 95 91 88 65 37 28 33 37 34 30 28 26 27 27 27 27 26 23 25 24 22 25 22 36 40 24 22 21 26 38 44 38 36
54 61 64 68 85 92 96 98 95 91 91 72 41 28 32 36 35 32 29 28 26 24 27 27 28 27 25 20 22 22 20 17 33 16 11 8 8 14 16 21 17 10 7
73 74 80 85 90 91 89 88 82 68 49 31 30 34 37 36 34 37 39 41 40 32 30 26 24 20 20 16 25 22 31 19 27 15 28 14 21 23 9 7 7 15 21
79 83 83 84 86 84 73 62 58 40 30 30 36 38 37 37 43 46 48 47 42 34 29 24 20 15 15 16 15 36 41 37 29 30 12 34 13 30 11 21 23 27 34
80 81 80 82 77 67 57 47 33 29 30 36 39 37 38 44 49 51 51 47 40 33 28 22 16 13 11 11 11 14 30 35 39 45 31 16 30 20 23 34 26 40 35
57 66 60 55 53 47 39 32 30 32 36 38 38 40 43 49 52 52 49 45 39 32 26 20 15 12 10 10 17 24 27 30 26 41 50 42 44 48 39 45 40 28 31
55 53 51 46 49 49 46 37 33 35 38 39 42 45 48 50 51 50 47 40 33 25 20 16 13 11 8 13 20 24 33 34 31 40 41 46 54 50 46 48 41 41 42

GFSSE_850_rhum_006.txt.gz
RH
58 39 47 64 84 86 77 80 81 82 81 67 53 46 62 71 84 92 91 87 86 78 42 96 87 85 84 91 87 86 82 85 86 78 64 43 40 48 42 88 71 43 52
50 29 38 56 84 76 82 79 80 82 77 67 49 39 89 93 91 86 86 80 78 76 44 59 85 87 90 84 89 85 81 87 74 71 32 38 43 40 45 93 58 66 88
31 25 37 59 71 76 81 80 81 84 59 52 45 76 75 94 94 85 79 82 70 52 40 33 40 56 80 80 78 77 79 80 76 50 30 35 39 50 62 77 58 47 58
27 28 38 60 75 82 82 85 83 59 54 54 58 92 81 76 88 90 92 90 62 55 40 30 29 25 26 43 49 59 54 68 59 54 46 26 34 52 58 100 70 48 40
34 31 37 60 74 77 74 79 73 67 63 58 49 78 85 87 85 82 83 87 66 70 37 28 28 34 33 32 34 36 35 44 39 33 37 43 44 51 69 90 84 61 36
39 41 46 54 66 81 72 77 74 61 61 45 43 73 83 81 84 84 80 81 73 88 46 34 34 30 35 44 47 51 51 41 33 30 26 26 39 48 78 95 84 43 41
40 47 47 59 58 69 72 72 69 63 78 61 48 65 71 82 84 83 77 80 84 76 37 38 40 40 38 38 39 45 44 43 41 39 39 36 36 44 54 93 96 97 71
45 50 60 49 55 57 65 72 63 67 99 90 53 50 55 65 75 76 79 76 75 48 37 38 39 41 40 41 41 42 44 46 48 50 54 54 51 45 49 62 98 95 91
52 53 56 42 45 54 59 58 72 98 98 82 60 42 32 40 65 74 76 73 47 40 39 39 42 43 46 49 55 54 54 52 58 62 64 65 61 63 63 63 82 97 98
54 54 51 40 41 44 44 52 61 81 73 65 54 33 24 33 50 55 42 36 37 42 46 55 61 69 72 75 81 86 87 87 86 85 84 82 83 85 83 78 77 96 97
56 50 47 44 42 46 43 51 61 61 53 54 43 36 22 26 36 35 38 42 53 62 64 68 69 74 79 86 88 91 98 98 97 90 94 89 92 94 92 90 92 90 89
40 40 44 43 45 47 50 56 69 66 56 50 39 43 37 39 46 50 57 68 76 76 75 82 86 87 88 88 87 86 90 94 88 98 95 91 91 91 88 87 84 84 86
27 40 45 41 50 53 55 61 67 63 69 62 65 56 60 55 62 70 81 89 89 84 85 84 87 87 91 88 83 78 72 71 75 73 77 85 88 85 81 80 79 84 85
27 31 44 49 50 60 68 68 78 75 76 66 67 65 62 64 76 89 87 98 98 90 84 87 86 81 81 82 74 74 62 59 60 71 79 71 56 67 74 88 73 78 77
25 28 40 54 60 60 69 75 80 77 82 83 84 84 79 74 84 93 100 100 95 90 83 84 86 81 70 48 41 43 43 44 49 65 79 74 51 50 61 66 71 74 76
23 27 43 57 70 78 84 92 92 87 99 100 93 91 90 90 96 99 95 92 88 86 85 79 59 48 40 39 38 37 35 36 44 47 51 44 46 63 64 65 60 60 62
24 26 48 62 70 78 89 98 95 99 97 99 97 98 99 97 98 98 95 95 90 66 45 44 40 40 36 31 26 23 23 25 29 30 40 61 61 53 52 51 49 53 55
34 35 57 65 66 78 87 95 97 99 99 99 98 98 98 97 100 99 94 56 33 36 37 34 31 26 25 24 24 24 25 24 33 47 43 54 52 47 42 38 36 41 46
44 50 60 66 71 81 88 99 99 99 99 100 99 93 96 99 88 55 33 35 31 27 25 24 25 26 26 26 25 23 22 34 35 26 38 30 22 17 23 28 33 36 34
46 56 63 68 79 82 88 99 99 99 100 100 97 92 83 45 32 34 31 29 31 30 26 25 27 27 24 22 22 19 17 28 16 37 9 11 5 8 14 8 5 6 5
46 45 49 64 81 80 92 98 98 99 99 94 86 37 32 35 34 33 34 40 39 38 32 29 28 25 22 19 18 16 11 10 19 29 8 9 7 7 5 5 4 5 4
50 57 57 74 83 85 87 98 99 95 88 62 32 35 36 35 36 40 46 49 47 40 33 28 26 21 18 14 14 16 19 13 20 10 19 8 17 10 8 6 6 6 7
63 73 75 84 84 95 100 100 96 82 45 32 37 37 37 38 44 49 52 51 45 36 31 25 22 18 16 14 11 16 34 42 29 24 13 20 16 14 11 10 11 19 19
74 86 90 93 98 94 90 84 70 49 31 36 38 37 36 44 50 52 52 49 41 33 27 21 16 15 15 13 9 13 21 29 39 37 25 14 24 17 14 14 20 25 22
77 85 87 86 87 75 61 57 39 30 34 38 36 37 42 49 52 52 51 48 38 31 25 20 18 16 11 9 13 17 20 22 26 40 44 39 27 19 16 25 26 24 24
82 84 88 86 73 64 48 36 32 33 35 36 38 42 47 51 52 51 49 45 36 29 25 21 16 9 8 13 19 22 24 26 28 32 39 44 46 40 44 38 33 32 48

GFSSE_850_rhum_012.txt.gz
RH
37 37 91 87 88 84 83 84 81 68 73 67 52 50 60 64 79 86 94 87 80 64 52 69 94 86 90 87 83 83 75 78 81 72 64 47 36 41 46 62 56 60 37
30 31 82 93 91 86 86 84 80 75 82 65 42 74 74 73 89 87 91 83 68 56 37 41 82 78 92 97 94 89 89 87 73 65 54 36 41 43 43 96 96 67 53
23 27 66 89 88 86 86 83 81 78 84 54 46 92 92 97 91 86 86 72 57 54 39 34 44 55 67 82 87 85 80 66 53 58 49 37 45 52 59 77 98 60 79
22 25 37 80 85 84 82 84 80 82 63 54 42 90 98 92 91 91 69 62 67 51 33 30 30 29 31 50 52 46 36 42 35 42 34 43 44 48 51 88 96 95 77
21 25 35 64 86 82 77 81 79 68 62 55 66 76 82 85 85 81 82 77 76 62 37 34 30 30 31 31 34 36 36 35 34 32 29 26 24 32 49 98 91 97 96
22 26 30 38 56 77 73 72 73 69 59 43 47 84 89 85 82 87 80 78 82 60 37 37 37 37 37 39 40 41 42 42 43 47 50 51 48 39 33 49 82 98 99
29 31 31 39 55 77 68 63 68 66 58 38 39 74 88 86 85 87 81 80 82 75 45 44 44 44 44 45 46 48 49 51 51 59 66 69 72 64 57 47 47 95 97
42 39 38 43 53 68 68 69 70 67 64 47 45 58 79 85 86 82 81 80 85 63 46 48 51 53 58 64 70 74 77 79 82 82 84 82 79 78 73 70 68 66 76
51 50 45 43 47 61 72 72 73 72 97 64 50 46 56 68 78 78 80 81 65 45 50 66 70 78 82 87 89 90 90 92 95 96 95 94 98 95 86 88 83 86 87
59 58 56 55 50 48 58 71 72 79 96 96 71 51 37 43 62 67 64 45 44 60 72 76 79 83 83 84 86 87 88 96 98 95 92 94 96 91 86 82 83 79 78
55 61 61 61 58 49 56 66 71 82 98 88 80 50 34 36 47 49 45 50 66 75 79 87 84 86 88 86 86 88 88 88 87 83 85 79 81 86 85 90 88 88 89
42 47 56 61 59 57 61 67 68 77 77 69 67 47 33 38 46 52 60 68 78 84 94 91 88 89 86 83 84 84 83 74 70 64 64 72 74 76 74 72 77 89 93
36 40 46 51 58 62 60 68 67 75 80 76 69 53 49 48 55 71 79 86 93 91 94 86 85 82 85 86 87 86 70 54 48 48 51 58 68 75 74 61 53 73 72
33 37 44 52 58 60 63 70 68 76 90 82 73 69 70 70 76 89 90 98 97 96 92 88 84 85 88 88 69 53 42 41 41 39 41 48 56 61 60 62 75 72 74
33 32 33 40 54 63 66 76 78 89 91 86 89 88 84 84 89 96 97 96 94 88 88 89 88 78 67 52 43 40 37 32 28 26 30 36 42 48 54 62 69 69 72
31 31 31 30 45 63 72 82 87 95 94 96 94 95 97 98 99 100 94 88 85 88 91 83 49 39 38 36 33 28 24 23 24 26 33 44 50 52 50 49 50 50 52
30 30 29 30 31 59 77 90 97 100 99 99 98 97 96 97 97 96 90 88 92 88 45 37 34 29 25 21 19 20 22 24 24 32 40 46 51 53 52 52 49 45 45
32 28 28 29 29 57 83 98 99 100 96 95 91 94 93 96 96 96 92 88 55 34 30 27 24 22 20 20 19 20 19 19 24 32 36 34 33 31 27 24 26 28 27
31 30 27 30 35 63 89 100 99 97 98 95 92 95 90 96 93 93 83 40 31 32 33 30 25 22 21 20 19 17 15 17 23 35 26 16 10 10 7 11 11 7 6
30 30 28 34 50 78 88 99 99 95 100 98 97 100 93 92 88 44 33 34 39 39 32 25 24 24 22 21 19 17 14 13 19 37 18 23 12 11 7 9 9 6 6
34 31 31 41 69 80 85 98 100 92 99 100 100 99 92 90 37 34 36 42 43 39 30 24 24 24 22 22 20 17 12 10 13 10 20 29 12 11 8 8 7 6 5
38 33 37 52 77 87 88 99 98 90 94 93 96 89 72 36 36 38 45 47 46 41 35 27 25 25 24 22 16 15 12 12 12 16 10 10 9 9 9 8 7 7 6
42 36 42 62 88 92 100 100 96 90 91 94 89 72 36 37 38 47 50 50 48 45 40 32 28 27 24 16 12 15 16 19 18 15 12 12 12 11 10 9 9 8 8
38 44 48 60 86 100 98 99 89 83 87 88 71 38 36 38 46 50 51 51 50 48 44 36 30 25 16 12 12 15 19 22 23 24 18 13 13 13 11 11 10 9 9
43 44 51 59 93 100 100 96 92 90 91 81 42 36 38 42 49 51 51 51 51 50 46 38 28 18 12 12 15 18 18 17 17 31 27 18 14 14 14 14 13 13 12
47 53 61 72 95 100 100 99 94 94 91 57 36 38 38 45 50 52 52 52 52 50 45 35 22 14 12 14 19 20 19 20 21 28 34 32 38 29 18 16 15 15 16

GFSSE_850_rhum_015.txt.gz
RH
33 38 88 88 82 83 81 82 79 67 72 69 49 46 60 77 81 86 94 83 78 64 46 61 92 95 88 71 88 82 76 74 74 77 44 33 28 29 35 90 75 76 51
28 31 86 84 83 83 80 82 77 74 77 66 40 49 66 68 79 82 90 84 63 43 35 42 69 88 92 88 90 85 80 80 81 57 44 34 33 36 40 95 98 80 53
25 28 76 89 85 84 83 79 77 73 70 51 80 90 84 87 88 85 84 67 47 42 32 32 47 57 82 91 94 90 83 69 50 34 32 37 33 38 49 59 95 68 59
25 28 59 88 86 84 79 80 77 76 57 46 76 92 91 88 87 78 66 68 59 37 30 31 29 30 35 56 64 53 44 32 26 25 23 25 35 38 46 98 90 89 78
25 33 53 94 80 79 75 77 76 65 55 46 49 92 74 85 79 80 78 80 72 51 41 39 36 36 36 34 36 36 38 38 36 38 37 32 28 24 28 46 86 87 94
23 35 46 87 86 71 69 74 75 64 54 41 63 77 86 82 83 83 84 82 80 65 44 45 45 44 42 44 47 51 88 61 52 56 58 63 61 54 40 33 39 77 86
25 36 46 66 86 70 65 65 68 64 52 37 52 86 86 84 90 76 83 81 82 68 47 47 47 47 47 50 53 55 55 60 57 70 73 72 72 69 64 58 50 56 93
29 35 43 54 67 72 69 63 66 66 62 40 44 74 85 86 85 83 82 76 83 64 48 50 58 70 75 80 83 84 84 87 88 87 85 84 83 77 76 80 79 72 68
39 41 42 52 62 78 69 65 68 69 71 57 43 56 73 83 83 83 77 77 80 48 54 73 78 80 81 81 84 84 86 88 92 90 85 80 81 81 79 81 86 86 83
47 51 53 53 59 80 74 74 73 75 95 85 63 45 43 60 72 73 72 70 47 60 74 79 80 82 84 86 87 87 87 89 87 76 81 80 74 78 83 88 85 84 89
53 57 63 64 65 65 72 76 76 79 98 98 81 54 38 38 56 64 53 48 64 77 83 84 82 86 86 83 80 82 82 78 71 69 66 63 65 69 79 83 83 84 86
42 53 62 66 68 70 67 78 78 78 93 86 78 59 33 36 47 47 50 66 82 84 87 89 86 82 79 82 83 84 85 69 52 47 45 48 51 61 64 66 60 59 67
37 46 54 59 69 72 64 67 79 74 78 76 70 58 46 46 55 57 74 84 92 90 94 95 88 84 83 84 84 70 55 42 39 39 39 40 42 50 64 81 79 65 55
31 35 42 50 59 70 72 64 73 72 77 83 77 51 60 60 70 78 90 94 95 94 92 86 87 88 85 73 55 44 40 38 36 32 30 30 34 47 64 74 70 63 81
32 32 33 37 40 58 68 69 76 72 78 92 78 70 77 79 83 95 95 95 91 89 88 88 88 74 48 41 37 34 29 26 24 23 24 29 36 41 50 57 56 67 68
30 30 32 33 34 43 60 71 75 78 88 90 86 87 91 98 97 99 93 92 85 84 88 80 40 35 31 26 22 20 18 19 21 24 30 38 46 49 50 50 49 50 50
30 30 30 30 32 34 51 75 83 87 97 94 95 97 97 96 93 95 91 87 87 88 48 33 28 26 24 22 20 20 19 20 22 29 35 41 44 46 46 46 46 45 45
32 31 32 31 30 32 50 79 89 94 94 92 93 92 91 90 94 94 88 89 85 35 31 30 29 25 21 19 18 18 17 16 21 29 30 26 22 21 18 13 12 13 12
33 32 32 31 30 31 52 84 93 98 95 95 89 92 94 90 91 93 90 80 34 33 34 30 23 20 19 19 18 17 16 14 21 31 34 27 19 13 12 9 8 10 9
34 33 32 31 32 36 52 81 94 97 92 98 97 95 94 89 87 88 63 34 36 37 33 25 20 20 20 19 19 17 14 13 16 26 41 22 16 25 15 11 9 8 7
35 33 33 33 34 38 59 88 96 95 99 100 100 100 97 92 90 42 35 39 43 39 35 31 25 23 21 19 16 14 13 11 11 18 12 18 10 14 12 10 10 9 8
36 34 37 40 41 50 62 86 90 91 99 100 100 100 98 86 56 36 40 46 45 44 43 40 35 28 24 20 16 14 13 12 14 13 11 11 11 11 11 11 11 10 10
38 36 40 41 47 67 73 99 92 99 100 100 100 98 80 52 36 39 47 49 49 48 48 47 42 34 25 19 15 14 18 23 16 12 12 13 13 13 13 13 13 13 12
38 39 45 53 57 74 99 99 91 89 92 95 88 84 70 38 40 46 50 50 51 51 51 50 45 37 26 19 15 14 16 18 26 30 19 20 17 16 16 15 15 14 14
38 40 46 56 67 95 99 97 93 94 89 81 83 82 38 40 43 49 51 51 52 52 52 51 44 34 23 16 15 16 16 16 17 25 34 23 20 20 19 18 17 16 15
41 44 48 55 75 94 90 88 91 95 89 85 82 44 39 40 47 50 51 52 52 53 53 51 42 29 20 16 18 18 18 21 23 29 42 40 47 42 27 22 19 18 19

GFSSE_850_rhum_018.txt.gz
RH
33 61 86 83 82 79 76 72 70 58 64 62 49 47 68 77 78 80 79 80 74 63 48 51 80 90 62 82 88 78 76 72 68 67 51 32 26 28 27 35 80 92 71
27 72 95 88 84 79 76 74 71 70 71 54 38 44 64 85 79 87 87 79 58 38 30 34 78 95 100 96 98 95 85 77 78 64 40 34 31 32 36 43 91 90 51
32 74 80 85 81 80 75 69 70 68 61 44 76 66 64 86 87 81 84 53 47 36 32 31 61 79 89 92 93 93 89 74 52 34 30 72 65 32 36 49 77 64 47
52 79 95 94 83 82 79 74 73 68 52 47 90 86 82 77 74 72 65 64 51 39 34 32 34 41 50 63 83 71 49 34 31 28 67 66 69 32 38 47 77 87 73
52 73 88 95 92 92 78 76 73 63 48 36 89 86 73 69 78 78 83 78 68 47 44 42 40 40 35 33 36 40 55 47 43 67 87 63 50 57 25 40 90 88 89
69 86 73 80 90 94 79 76 76 64 45 38 67 80 79 81 88 84 89 84 78 58 47 45 45 44 45 46 50 55 97 91 58 95 93 90 67 65 52 35 45 69 84
46 91 57 93 97 93 80 77 73 63 45 40 71 83 82 79 88 86 84 82 81 63 48 49 48 50 53 60 64 62 62 62 60 95 95 95 94 69 62 62 59 54 54
64 67 76 91 99 95 81 69 68 63 45 37 70 84 85 84 83 82 81 79 82 63 48 56 60 73 75 75 79 80 82 81 95 100 100 98 86 78 73 89 96 93 78
78 46 52 78 96 91 85 75 70 66 46 39 48 75 82 83 83 83 79 77 84 50 54 67 72 74 74 77 79 81 83 84 87 90 92 97 92 79 77 84 86 88 92
45 49 56 90 98 91 87 85 79 75 82 52 42 47 59 74 77 80 82 77 57 55 71 74 77 84 87 86 84 78 78 78 85 78 87 80 62 59 62 80 86 86 88
48 45 54 81 94 98 97 87 85 82 98 93 72 46 38 48 63 69 64 51 52 72 74 79 82 85 85 80 77 79 79 77 63 57 63 41 44 51 63 65 72 71 73
56 52 53 73 97 100 94 92 89 96 97 96 84 61 41 36 48 60 48 48 72 80 81 89 90 80 79 80 81 78 69 58 46 41 45 38 39 44 53 75 69 61 63
68 74 51 55 67 91 96 98 99 98 99 97 88 60 36 35 46 52 62 89 87 90 93 95 91 85 83 83 76 61 45 40 39 39 37 33 33 41 77 69 58 70 60
66 64 44 50 51 68 68 95 100 100 97 98 91 69 45 48 53 84 97 95 93 84 89 84 84 84 82 54 40 38 35 33 30 28 34 27 30 39 55 56 61 59 56
54 48 38 42 46 49 62 91 99 97 97 99 96 77 78 87 92 98 91 86 88 87 87 85 86 66 38 34 29 24 20 19 19 22 32 30 37 42 46 48 54 56 60
45 51 53 36 38 43 57 76 88 98 98 99 98 76 76 97 98 90 92 89 89 84 84 85 41 31 26 23 21 19 18 18 20 24 34 34 42 46 48 49 49 50 50
35 39 42 36 41 36 52 76 96 97 99 100 99 96 92 90 93 91 90 90 86 83 77 33 30 28 26 21 18 17 17 17 19 26 32 38 41 41 40 36 31 28 27
39 36 33 33 34 40 52 89 99 98 97 98 96 90 90 90 87 88 92 86 85 77 32 32 30 22 18 17 17 17 17 16 18 25 28 27 22 17 14 12 9 8 8
35 35 33 33 34 39 87 98 98 97 92 92 93 89 85 87 91 92 90 88 80 33 34 30 23 18 16 17 18 18 17 22 24 29 33 31 28 24 20 19 14 10 8
32 36 34 33 33 39 78 99 98 91 96 95 95 87 91 94 89 90 88 81 35 37 34 29 27 24 20 18 16 15 14 18 21 31 35 39 17 14 14 16 14 11 10
36 37 33 33 34 37 54 67 85 92 99 99 98 95 100 95 88 85 78 35 39 40 39 39 38 34 29 22 16 25 18 12 16 30 27 19 15 14 12 12 12 12 12
43 38 35 34 34 42 45 63 73 92 99 97 97 100 100 96 88 85 35 40 45 44 45 46 45 41 35 25 18 22 26 25 29 22 20 14 15 14 14 14 14 14 14
46 40 37 36 37 50 59 82 84 90 93 100 100 100 100 92 80 43 39 47 47 48 48 50 49 46 35 27 18 19 22 24 26 23 24 21 18 20 19 17 16 16 15
44 39 40 38 47 52 53 70 71 79 90 98 99 100 97 77 48 39 46 48 49 50 51 52 52 48 38 24 22 16 15 18 26 26 29 32 32 32 36 32 21 17 17
37 40 40 44 60 49 56 81 91 90 94 98 100 99 84 58 40 42 48 50 50 51 52 53 53 46 36 23 18 17 21 29 36 39 36 32 34 35 41 45 44 36 40
49 39 43 51 58 56 76 99 95 88 83 96 99 90 64 48 41 47 50 50 51 52 54 55 53 46 32 22 18 19 22 32 32 35 35 35 38 39 41 45 44 43 42

GFSSE_850_rhum_021.txt.gz
RH
60 43 80 75 73 73 72 66 57 53 52 53 54 56 72 79 78 77 79 80 70 54 47 45 68 92 66 94 94 82 85 77 72 67 63 35 25 27 28 32 40 89 90
61 43 71 84 81 75 75 71 70 67 65 47 38 46 54 81 76 78 84 72 50 35 27 30 74 100 97 99 99 96 89 82 75 63 38 33 58 35 37 47 76 96 68
74 92 64 80 88 78 78 74 72 70 50 42 46 60 88 87 82 77 81 48 38 29 28 30 69 85 84 86 87 89 86 75 46 29 33 72 76 51 36 44 60 69 47
72 93 94 85 80 80 79 73 69 64 46 80 87 67 81 80 80 77 59 54 46 37 29 28 43 55 70 78 77 82 55 35 29 31 76 68 69 62 28 37 58 91 85
70 85 94 76 80 82 82 78 68 54 40 79 92 83 70 68 71 74 76 71 59 43 41 38 35 34 30 32 36 36 74 49 44 85 89 94 60 85 46 27 39 76 81
69 79 93 94 88 88 83 79 72 52 33 45 79 70 70 69 81 83 80 81 72 51 45 45 44 43 43 44 48 51 52 53 61 90 92 94 95 75 59 52 42 37 51
68 81 80 87 94 91 83 77 71 55 32 45 75 75 77 80 78 85 83 81 81 60 47 48 48 52 54 62 64 66 68 69 74 93 92 96 96 77 67 68 92 87 72
66 80 96 92 92 95 90 80 71 60 34 48 67 81 80 79 82 82 79 80 82 66 50 63 65 69 68 69 72 75 76 76 81 87 90 93 97 82 75 76 82 85 83
67 79 92 89 94 91 88 80 73 67 38 40 70 78 79 79 82 85 82 77 75 50 54 68 74 76 77 79 80 77 70 70 69 88 86 88 88 66 56 83 87 82 86
70 77 82 94 87 87 83 83 77 74 48 38 48 62 73 78 80 80 82 72 63 44 60 69 78 82 82 80 75 69 68 67 74 74 72 78 46 46 52 61 64 67 76
70 75 76 80 97 98 90 83 79 79 91 62 45 36 41 66 73 75 72 61 42 55 68 74 77 81 77 69 70 72 64 70 67 60 60 51 38 40 49 61 51 60 62
68 73 76 76 85 93 98 90 81 90 96 82 69 50 68 81 82 87 54 44 50 70 76 80 88 86 77 73 71 66 58 44 46 54 55 42 35 42 80 68 63 74 65
59 66 75 80 81 87 95 97 100 91 98 94 94 95 81 62 40 50 43 48 75 83 94 85 82 78 81 80 66 42 34 33 38 49 52 40 29 75 84 59 69 63 59
52 61 72 81 86 89 99 99 99 88 89 88 95 95 82 74 77 84 89 95 98 88 82 82 80 81 77 48 33 30 28 28 32 45 52 29 28 37 44 54 48 47 48
47 56 69 79 90 94 94 99 97 95 85 93 93 94 84 79 83 85 93 88 83 84 81 82 80 71 34 29 24 21 20 29 32 42 49 27 29 37 40 43 45 48 50
43 49 61 72 83 93 93 99 96 97 86 89 93 97 84 83 86 90 85 87 84 85 79 81 61 31 27 24 21 20 18 24 28 32 50 28 32 37 41 43 46 46 45
32 38 47 64 79 89 91 93 97 93 86 90 96 98 91 90 96 90 86 84 83 84 79 48 30 27 21 16 20 19 18 19 25 40 35 47 34 35 37 34 26 19 15
34 33 34 45 64 86 52 91 92 88 86 94 98 97 96 98 83 83 87 86 83 82 60 31 28 21 16 15 16 24 22 21 27 31 28 35 30 25 20 18 14 12 12
32 35 36 41 47 60 73 86 92 96 94 93 96 98 96 85 86 82 84 83 84 79 32 30 25 23 21 18 16 16 18 22 33 31 37 32 29 29 27 14 12 14 14
30 34 37 40 41 49 69 84 92 94 95 98 99 91 84 84 84 86 87 84 86 35 34 32 33 33 31 26 19 18 17 29 31 38 40 38 36 19 17 15 12 14 14
30 33 36 38 49 55 65 87 91 89 99 99 98 90 83 84 92 89 88 85 42 36 38 40 42 42 39 33 23 23 30 22 30 44 49 38 31 24 21 28 21 16 15
36 37 39 40 52 63 74 80 87 100 100 100 100 93 87 93 96 88 83 57 36 42 43 45 47 46 44 37 25 26 30 28 32 30 33 29 28 26 28 27 20 19 18
38 38 39 44 57 65 85 84 98 99 98 99 100 98 92 98 95 85 66 36 43 45 47 48 50 50 45 40 28 20 24 27 24 23 26 31 28 32 29 28 27 25 22
33 39 42 52 70 69 92 70 50 51 87 99 100 98 98 99 92 81 42 39 47 48 49 50 52 52 48 40 30 23 17 18 30 29 28 31 32 30 33 35 33 24 22
29 37 47 65 76 86 85 62 67 98 100 100 100 100 100 97 82 60 41 45 48 50 50 52 53 53 50 37 28 21 27 31 34 36 38 34 33 34 35 38 40 42 38
28 38 50 80 63 93 80 74 81 99 97 98 99 100 99 89 77 45 44 48 49 50 52 53 54 54 49 38 26 21 23 29 32 37 37 37 39 37 38 38 40 34 40

GFSSE_850_rhum_024.txt.gz
RH
52 36 52 37 46 49 49 49 44 46 62 73 79 79 81 80 73 75 74 72 67 49 43 43 83 59 78 95 96 78 84 80 74 66 56 32 30 27 25 29 54 98 98
31 41 51 43 49 55 57 56 56 57 53 48 46 62 66 75 78 81 72 53 35 27 25 29 85 77 78 99 95 83 85 76 62 42 26 54 61 51 33 36 59 82 68
42 44 55 58 62 63 64 65 63 55 34 33 36 78 87 91 84 78 74 35 28 25 25 27 77 75 78 81 80 86 82 56 29 32 65 66 70 64 37 35 41 64 50
65 46 53 69 71 67 68 69 66 51 45 74 50 85 89 85 80 53 47 44 37 32 25 29 50 68 70 67 57 66 35 28 43 74 81 72 71 76 60 25 35 94 94
84 53 56 68 72 66 66 67 62 49 55 87 77 73 64 71 72 60 65 57 45 40 39 34 32 29 26 27 29 31 38 40 75 89 93 89 79 80 65 52 35 42 62
82 88 76 68 76 75 71 63 56 42 38 84 69 70 60 67 71 75 78 73 61 46 44 43 41 39 40 42 45 48 54 55 65 92 92 96 91 86 71 61 82 72 64
78 86 86 72 80 79 74 66 54 39 31 63 62 64 60 60 75 84 77 70 63 47 45 48 52 52 58 62 64 68 69 69 80 86 90 94 98 96 80 72 80 79 77
73 82 81 82 84 75 71 67 56 44 27 48 63 70 76 77 77 84 78 68 58 43 45 55 59 63 65 70 75 74 69 66 71 88 88 83 92 90 70 95 88 87 86
73 82 67 74 84 79 76 64 60 50 28 42 59 71 75 75 78 80 75 66 63 42 50 60 68 74 79 80 76 66 62 61 79 80 75 85 83 52 47 48 56 73 81
72 83 81 78 76 76 75 64 52 53 32 36 53 61 73 76 78 80 77 64 54 41 57 64 69 72 74 69 66 66 63 71 72 66 68 69 59 38 41 43 50 52 57
72 78 85 80 81 85 82 72 61 51 37 34 36 45 59 70 76 75 70 58 43 47 60 66 71 79 75 66 67 65 60 62 50 56 48 43 42 40 63 55 58 75 62
70 75 79 84 87 94 94 81 76 66 49 37 43 33 34 69 83 60 63 54 42 59 65 69 78 79 73 72 74 68 44 38 39 45 43 41 39 62 83 70 68 58 59
65 71 75 78 83 83 96 96 86 72 76 70 57 72 62 82 76 70 64 44 54 72 70 74 66 66 74 71 58 35 33 28 33 42 42 36 35 86 69 61 48 48 54
57 64 71 77 80 81 89 97 97 90 90 81 95 90 74 61 50 50 73 83 93 86 83 78 77 73 69 38 31 25 22 23 27 29 33 33 25 33 44 38 37 40 45
48 56 65 75 81 82 87 93 96 87 89 85 91 89 88 63 62 71 93 94 91 84 75 75 73 73 35 28 23 21 20 20 25 33 32 32 27 31 37 38 41 43 45
39 47 60 70 81 86 92 93 97 91 87 87 86 93 91 78 79 86 90 88 83 80 79 75 74 34 26 22 16 14 15 18 22 29 30 28 26 32 36 38 39 37 30
33 43 51 66 77 84 84 93 94 95 84 86 86 89 91 82 84 87 88 76 82 81 82 74 34 26 20 14 13 15 16 17 20 28 29 27 24 28 30 29 20 14 12
32 33 43 53 69 82 79 86 95 94 82 84 86 87 92 89 89 90 92 84 85 83 82 44 28 22 19 17 15 15 16 17 21 26 28 26 25 25 22 24 24 13 12
29 33 34 42 56 62 67 70 86 86 85 83 86 88 91 90 93 87 81 86 81 84 74 31 27 28 28 25 22 17 16 17 25 27 27 25 24 26 32 22 14 13 11
27 29 33 35 44 56 70 72 88 88 89 86 87 86 86 91 83 80 86 83 82 85 40 32 34 36 36 34 27 20 19 18 23 24 30 33 33 26 22 17 16 13 15
28 26 27 34 38 38 64 73 88 85 88 90 90 89 93 88 75 81 91 78 83 77 34 37 41 43 42 39 30 22 24 27 25 25 31 39 29 27 23 21 17 19 19
34 33 28 34 38 39 41 76 78 75 89 85 92 97 98 89 79 83 81 79 81 35 39 43 46 46 46 44 34 24 25 27 31 28 25 27 30 26 25 24 24 22 21
33 34 35 31 36 42 44 64 89 74 87 91 94 99 100 96 92 80 86 80 52 36 42 46 48 50 49 47 39 27 21 26 24 21 24 25 26 28 31 30 27 27 26
26 31 34 37 38 41 50 70 70 52 76 86 99 99 100 100 100 89 86 74 36 42 46 48 50 52 52 50 44 32 22 19 18 19 24 25 25 32 30 28 30 27 27
22 27 31 36 40 42 61 72 75 69 81 78 99 95 100 100 99 92 84 54 40 45 48 50 52 53 54 52 45 32 24 22 23 31 32 28 27 26 26 27 26 32 33
26 22 27 34 40 57 73 80 80 73 74 84 99 94 99 97 92 85 81 44 43 47 49 51 53 54 55 52 44 31 25 23 24 29 34 29 30 26 28 24 20 26 36

GFSSE_850_rhum_027.txt.gz
RH
74 51 34 28 35 44 50 54 60 67 71 78 86 86 79 77 72 72 71 67 59 45 43 66 69 59 89 98 89 76 75 74 69 55 40 28 37 32 27 29 51 79 95
55 53 34 30 29 31 34 36 40 40 42 52 62 75 65 71 76 75 50 44 27 22 24 73 72 80 82 80 74 77 77 62 43 28 38 45 51 48 27 32 46 75 45
42 62 43 38 36 40 44 49 48 42 35 35 40 60 85 86 78 56 33 26 23 22 25 72 78 78 77 76 77 79 67 28 30 57 61 49 50 62 46 26 34 61 56
45 57 48 48 45 44 43 40 37 28 51 35 85 87 89 85 71 37 36 34 31 25 27 54 80 79 76 54 42 39 28 36 65 76 78 80 67 70 58 37 33 51 75
54 55 55 50 46 49 46 37 32 28 54 50 81 90 86 82 72 48 47 40 37 34 30 26 24 23 25 27 30 40 40 62 77 82 88 95 88 84 73 59 54 44 51
67 56 62 55 51 53 51 42 33 25 51 64 63 53 60 60 56 60 56 46 39 38 37 36 36 38 41 45 50 57 58 62 88 91 89 91 94 90 86 72 80 79 70
76 62 62 58 59 60 52 42 34 23 37 51 57 47 47 54 64 70 61 52 40 38 41 43 47 54 57 60 66 67 68 75 80 84 87 91 90 90 87 74 85 82 85
76 77 79 63 61 64 55 44 40 24 26 45 51 50 60 65 79 79 62 52 40 37 45 47 51 57 66 73 73 66 62 73 93 88 84 85 80 80 53 77 79 81 78
78 84 86 74 68 64 58 45 34 23 27 39 57 66 72 73 74 76 62 49 40 38 46 51 58 65 69 68 65 64 66 76 78 74 74 82 80 66 40 48 56 87 78
72 76 72 74 76 70 67 52 43 32 21 30 50 59 65 72 79 76 68 51 43 41 48 53 58 65 67 61 64 66 65 69 66 63 66 62 61 44 41 50 60 87 75
69 73 74 71 74 74 73 63 54 45 26 24 38 54 60 66 67 69 63 54 42 47 56 59 65 70 69 62 65 64 55 56 49 48 48 45 47 67 76 84 74 70 84
69 74 79 78 77 75 78 73 61 55 36 29 34 40 53 63 57 67 66 54 41 53 61 67 69 71 70 72 74 67 38 37 34 37 39 42 46 80 90 87 62 61 76
66 71 80 82 82 79 72 81 75 61 53 39 37 34 36 48 57 55 58 53 45 64 68 72 64 66 72 70 56 33 29 26 21 27 36 37 54 82 94 53 43 45 50
63 68 74 79 84 82 82 86 81 75 65 59 51 69 62 61 68 60 62 53 60 74 75 70 66 72 68 40 30 24 21 21 19 21 28 30 34 41 40 36 38 43 47
60 62 70 73 78 81 79 84 92 92 77 76 72 80 83 71 65 52 69 83 77 84 73 71 75 70 50 29 23 18 16 19 18 20 26 30 31 32 36 37 39 39 40
43 57 62 70 71 78 79 84 89 94 85 85 88 92 94 79 53 59 78 93 95 80 76 77 73 66 30 23 15 12 13 16 16 18 24 28 28 30 31 33 33 30 19
34 40 58 63 74 77 79 83 90 96 90 84 87 89 87 82 76 81 86 92 90 74 78 80 73 32 24 16 14 13 14 16 19 20 24 26 24 24 23 22 20 20 18
33 34 44 56 64 69 77 86 86 91 91 85 86 86 89 86 80 84 86 88 83 77 81 81 44 26 21 21 19 16 15 15 19 23 27 27 23 23 22 22 23 14 12
31 32 35 44 51 52 64 79 75 88 90 83 84 86 88 86 84 85 88 90 86 85 84 78 30 27 28 29 26 22 18 17 17 25 26 26 28 26 24 21 16 13 14
26 30 29 38 43 52 50 63 71 83 78 82 83 84 88 86 86 90 92 88 83 79 84 62 31 34 37 37 32 24 20 21 21 24 26 26 25 24 21 18 17 16 19
25 25 26 28 42 51 58 59 67 72 88 84 84 82 87 87 87 89 81 81 84 79 83 40 35 40 42 41 34 26 22 25 25 26 25 30 29 26 25 22 23 26 22
31 29 26 26 29 44 57 55 50 56 80 84 84 85 88 87 86 91 77 78 79 77 80 35 40 44 45 44 40 27 23 27 26 27 26 25 29 30 26 28 29 28 23
28 29 31 30 31 41 48 52 52 60 70 84 84 87 89 89 87 95 79 73 72 77 42 39 44 46 47 47 45 38 25 21 21 20 23 25 24 25 27 29 30 27 26
26 25 26 31 32 35 40 45 45 45 61 77 71 70 86 88 96 94 89 88 75 67 36 42 46 48 49 50 49 45 35 25 20 18 21 23 26 25 25 26 25 24 24
22 24 25 30 29 35 41 41 43 47 56 57 61 68 78 87 98 98 96 89 79 44 39 45 47 49 51 52 52 48 38 27 22 22 23 21 20 21 21 22 21 19 18
27 26 24 22 30 30 35 44 45 48 52 57 65 77 86 87 99 99 99 87 67 39 42 48 49 51 52 54 54 50 39 28 23 25 27 25 24 21 23 21 18 16 19